Wind_Speed
16 16 15 15 16 14 10 9 8 8 7 7 7 7 7 7 5 4 3 4 5 4 5 6 5 6 6 5 5 5 6 7 8 8 8 9 8 8 8 9 10 9 8 8 8 7 8 8 7
16 15 16 18 16 11 9 9 9 8 8 8 8 8 8 7 6 5 4 5 5 4 5 5 5 6 6 6 6 6 7 7 8 9 8 9 8 8 8 9 10 9 7 6 6 7 8 8 8
16 16 19 17 12 10 10 9 9 8 8 8 8 9 9 8 7 7 5 6 6 5 5 6 6 6 7 7 7 7 7 7 8 8 9 8 9 8 9 10 10 8 7 7 7 7 8 9 8
16 20 19 14 10 11 10 9 9 9 9 9 10 10 10 9 9 8 8 8 8 8 8 8 8 9 9 8 8 8 7 7 8 8 8 7 7 8 10 10 9 8 8 8 7 8 9 9 8
18 19 17 13 11 11 11 10 10 9 9 10 11 11 10 10 10 10 9 9 10 10 10 10 9 9 10 9 9 9 8 8 8 8 8 8 8 9 9 9 9 8 9 8 8 8 9 8 7
20 17 13 12 11 12 12 10 9 10 10 10 11 10 10 10 10 10 10 10 11 11 11 10 10 9 10 10 9 8 9 8 7 7 7 7 8 8 8 7 8 7 7 8 7 7 7 6 6
18 14 11 10 10 12 12 11 9 10 10 11 11 11 11 11 11 11 11 11 11 11 11 11 10 10 10 10 9 9 8 8 7 6 6 7 8 8 8 7 7 6 6 7 7 7 6 6 5
15 12 11 11 11 12 12 12 11 10 11 11 11 11 11 11 11 11 11 11 11 11 11 11 10 10 9 9 9 9 9 8 8 7 7 7 7 7 7 7 6 5 5 5 5 5 5 4 3
12 10 10 10 11 11 12 12 12 11 12 12 11 11 11 11 11 10 10 10 10 10 10 10 9 9 9 9 9 9 9 8 8 8 7 7 7 7 7 7 6 5 5 4 3 3 3 3 3
10 9 8 9 10 10 12 12 11 12 13 12 12 11 11 11 11 11 10 9 9 10 10 10 9 9 9 9 8 8 8 8 8 7 7 7 7 7 7 6 5 4 4 4 3 2 2 2 2
7 7 8 9 9 10 11 11 11 11 12 12 12 12 12 11 11 12 11 10 9 9 9 9 9 9 9 8 8 8 8 8 7 7 8 7 7 7 7 6 5 5 4 4 3 3 2 1 1
6 7 8 8 10 10 11 11 12 12 12 12 12 12 12 12 12 12 11 10 9 9 9 8 9 9 9 8 8 8 7 7 8 7 7 8 8 7 6 5 4 4 3 3 4 3 3 2 1
5 7 8 9 10 10 11 11 11 12 12 12 12 12 12 13 13 12 11 10 10 9 9 8 8 8 8 8 8 8 7 7 7 7 7 7 6 6 4 3 3 3 3 3 3 2 2 2 2
5 6 7 9 9 10 11 11 11 12 12 12 12 12 12 12 12 12 11 11 10 9 8 8 8 7 7 7 7 7 7 7 7 7 6 6 5 4 4 4 4 4 4 3 3 3 3 3 3
2 3 6 8 9 10 10 11 12 13 12 12 12 12 12 11 12 12 11 11 10 9 8 7 7 7 7 6 7 7 7 6 6 6 6 6 5 5 4 4 4 4 4 4 3 3 3 3 3
1 1 5 7 8 9 10 10 10 11 12 12 12 12 11 11 11 11 11 11 10 9 8 7 7 7 7 6 6 6 7 6 6 5 5 5 5 4 4 4 4 4 4 4 4 4 4 4 3
2 1 4 5 5 6 7 8 9 11 11 11 12 12 11 10 10 10 10 11 10 10 9 8 7 7 6 6 5 5 6 6 5 5 5 4 4 4 4 4 4 4 4 4 4 4 5 4 4
3 0 2 3 5 4 5 7 8 10 10 10 11 11 11 10 9 9 10 10 10 10 9 8 7 7 7 6 5 5 5 5 6 6 5 5 5 5 5 5 5 5 5 5 5 5 5 5 5
4 2 1 4 6 3 3 6 8 8 10 10 9 10 10 10 9 8 9 9 9 9 8 8 8 7 7 6 5 5 6 6 6 6 6 6 6 6 6 5 5 6 5 5 5 5 5 6 6
7 5 5 6 6 5 3 3 6 7 8 9 8 8 9 9 8 7 7 8 8 9 9 8 8 7 6 6 6 6 6 5 5 6 6 6 7 7 6 6 6 7 7 7 6 6 6 7 7
10 9 8 6 6 6 5 4 4 6 8 8 8 7 8 8 8 7 8 8 8 8 8 8 8 8 7 6 6 6 6 6 6 6 6 6 7 7 7 6 6 7 7 7 7 7 7 7 8
12 11 10 7 5 7 5 7 5 5 7 7 8 7 7 7 7 7 7 7 8 7 7 8 8 8 7 7 7 6 6 6 6 6 6 6 6 6 6 6 7 7 7 8 8 7 7 8 9
13 12 10 8 7 7 7 9 7 4 6 7 7 6 6 6 6 6 6 7 7 7 7 7 7 7 7 7 7 7 6 6 6 6 6 6 5 6 6 6 7 7 8 8 9 8 8 8 9
15 13 10 9 9 10 9 9 8 5 5 7 7 6 6 5 5 6 6 6 7 7 7 7 7 7 6 6 7 7 6 6 6 6 6 6 6 6 6 7 7 7 8 8 9 10 10 10 11
17 15 12 12 13 12 8 10 11 8 5 6 7 6 5 5 4 5 6 6 6 6 7 7 6 6 6 6 6 7 7 6 6 6 6 6 6 6 7 7 8 8 9 9 9 10 11 11 12
18 16 15 13 11 10 9 11 11 10 9 7 7 7 4 4 5 4 5 6 6 6 6 6 6 6 6 6 6 7 7 6 6 6 6 6 7 7 8 8 8 9 9 10 10 11 12 12 13
19 18 15 14 13 12 11 11 11 11 11 9 8 9 5 4 5 5 5 5 6 6 6 6 5 5 5 5 6 6 6 6 6 6 7 7 7 8 8 9 9 9 9 10 11 11 12 13 14
22 19 18 17 15 15 13 12 12 11 13 10 9 9 8 6 5 6 6 6 6 6 6 5 5 5 5 5 5 6 6 6 6 7 8 8 8 9 9 9 10 10 10 11 12 12 13 14 15
24 23 22 20 18 17 15 14 13 13 13 12 11 9 8 6 6 6 6 5 5 6 6 5 4 4 4 5 5 6 6 7 7 8 8 9 9 10 10 10 10 11 12 12 13 13 14 15 15
24 24 24 23 21 20 17 16 13 12 13 12 10 10 9 7 7 7 7 6 5 6 5 5 5 4 5 5 5 6 6 7 8 9 9 10 11 11 11 10 11 12 12 13 13 14 15 15 16
Wind_Direction
71 69 68 65 55 48 36 34 38 42 46 52 51 48 49 49 54 63 82 74 79 74 82 99 112 115 121 125 124 130 126 134 134 127 130 132 135 139 137 136 137 138 139 138 141 139 140 138 141
70 71 68 61 54 39 25 36 41 42 48 51 50 49 51 49 53 67 77 76 79 80 83 84 101 117 118 117 118 124 131 128 128 128 131 132 136 139 134 133 131 129 131 133 134 136 144 143 142
74 69 62 57 44 30 30 32 36 40 46 49 52 52 52 51 56 62 73 78 77 81 87 86 93 108 113 113 120 132 133 130 130 131 125 125 128 129 129 126 124 119 117 115 120 130 142 143 139
68 60 55 54 38 32 29 30 33 36 41 52 55 51 51 53 58 63 71 77 75 78 81 84 90 97 107 112 120 124 124 124 125 124 122 124 127 127 125 123 123 120 120 121 121 127 134 136 135
62 58 47 44 41 34 34 34 36 40 43 53 56 49 50 58 61 66 72 77 77 77 83 87 90 91 92 100 107 113 116 118 116 117 119 122 126 126 125 120 123 125 119 120 120 126 128 134 139
60 52 44 39 37 35 33 37 42 43 48 52 56 51 51 60 67 70 72 77 77 79 84 84 86 86 88 89 92 99 107 108 111 114 122 126 130 130 129 123 121 125 120 119 121 126 126 133 140
60 50 44 38 37 39 36 37 43 45 48 51 54 53 55 63 66 70 72 76 77 79 83 83 84 85 87 88 89 91 98 102 108 113 121 126 128 128 130 126 122 124 121 119 124 125 126 131 136
57 50 42 31 36 38 39 41 46 50 53 51 52 54 60 63 64 68 69 73 75 77 81 84 84 84 84 83 86 89 94 95 99 103 107 115 119 120 124 125 123 126 126 123 123 121 128 129 135
58 52 45 35 37 43 42 44 45 47 55 54 53 52 58 63 63 67 69 72 74 76 78 82 83 84 84 83 83 86 89 85 90 91 98 107 115 119 115 120 122 130 131 128 125 120 125 132 137
50 43 42 43 41 44 43 44 46 47 51 53 53 53 57 61 61 63 66 71 71 71 75 79 82 83 82 84 86 87 86 87 86 87 95 105 116 123 116 111 118 127 131 125 120 132 139 146 157
47 41 40 45 43 44 45 48 48 47 49 49 50 52 57 58 59 59 63 69 69 69 73 79 81 81 79 80 82 85 84 85 86 87 93 101 109 116 114 110 110 111 113 111 99 92 100 133 208
46 46 48 47 49 47 46 49 46 46 46 47 49 49 52 55 55 57 57 61 67 70 73 78 79 80 79 75 75 81 85 85 86 87 93 100 102 105 103 98 93 102 103 93 85 70 56 47 9
53 51 49 47 51 49 45 48 43 41 42 46 48 48 51 54 55 55 57 58 60 63 67 70 77 81 79 81 80 81 81 78 80 87 92 91 96 97 89 90 81 85 77 70 69 64 32 11 355
60 47 46 46 40 40 42 47 43 39 41 45 49 50 51 53 53 52 55 58 59 63 63 64 71 72 73 77 81 83 81 83 86 89 92 91 87 88 82 74 68 66 69 65 56 37 20 12 4
81 66 47 42 32 28 31 36 37 37 39 42 46 49 51 52 52 52 54 55 57 60 65 68 68 67 69 71 72 74 73 78 80 81 82 82 79 74 66 63 54 49 53 54 50 32 16 13 6
250 51 46 32 19 22 22 25 30 32 36 38 40 45 47 49 50 50 51 53 55 57 63 65 66 66 69 68 67 70 68 69 72 71 69 64 63 59 52 45 40 39 39 40 32 21 7 360 352
282 25 40 17 5 13 20 14 16 25 30 35 36 38 41 43 45 47 50 51 52 53 55 57 57 62 63 62 68 68 62 58 63 65 63 54 48 46 45 40 35 26 27 23 15 11 8 2 352
238 345 26 335 328 356 12 9 5 18 21 27 31 33 36 40 43 46 48 49 49 49 50 51 54 62 60 55 58 59 51 51 60 57 57 52 45 47 50 40 31 25 19 12 8 2 0 358 349
235 226 296 293 298 318 2 4 2 11 13 17 22 26 32 35 42 43 44 46 45 45 48 47 49 53 56 54 52 48 45 54 55 54 50 52 54 51 47 40 34 26 19 12 6 1 1 351 345
229 233 250 267 290 297 312 356 356 359 2 8 13 19 25 31 36 41 41 41 39 41 42 42 42 47 51 49 45 48 47 50 54 56 55 56 55 54 51 46 39 31 26 19 14 8 1 351 345
223 233 244 247 271 291 296 313 338 348 350 359 8 17 17 25 32 40 39 37 36 37 37 37 41 42 43 43 44 45 46 51 51 50 52 54 52 48 44 38 31 27 22 14 5 1 357 353 349
223 226 240 242 248 276 291 294 304 335 335 347 354 0 9 16 20 28 32 30 29 29 29 32 35 38 42 43 42 40 40 43 45 46 49 49 45 38 30 24 20 17 13 9 3 356 354 350 346
221 225 236 235 232 256 266 273 292 296 309 322 339 347 355 4 9 16 20 24 24 25 25 27 30 34 37 36 36 38 36 36 35 36 41 43 38 30 20 13 10 8 3 1 1 358 354 351 345
221 224 228 229 234 248 260 270 280 275 304 311 321 333 343 350 1 8 9 13 16 21 22 23 23 27 28 27 29 30 30 30 29 29 29 27 26 18 9 4 1 358 355 354 356 355 351 349 345
224 223 223 237 237 239 242 260 276 290 290 295 301 312 325 342 354 3 3 3 5 10 13 15 17 20 20 22 24 23 23 23 22 19 19 18 14 5 0 355 352 352 350 349 347 345 344 343 342
224 224 225 237 243 248 239 245 260 274 270 273 280 287 294 320 335 349 356 355 355 356 1 6 9 12 13 16 14 14 16 16 14 13 11 6 2 357 354 351 347 343 344 343 341 338 337 338 337
224 223 224 235 243 250 250 250 254 259 262 265 269 278 288 292 309 326 339 344 345 345 346 351 357 3 9 11 10 11 9 9 7 6 5 358 354 352 350 349 348 345 343 341 338 337 335 334 333
224 222 224 225 233 237 245 252 248 258 261 265 265 266 272 280 293 306 319 330 331 332 333 341 353 359 4 5 5 5 1 360 359 356 353 354 349 346 345 346 347 345 342 342 340 337 335 335 334
225 221 220 223 226 235 239 245 248 252 258 257 262 261 263 264 272 286 300 313 316 315 323 332 342 352 357 353 350 351 349 349 348 347 347 347 345 341 338 338 336 337 337 338 337 336 336 334 334
228 224 222 224 225 231 233 241 244 250 256 253 253 256 261 261 263 272 282 295 306 309 315 320 329 338 342 340 338 338 340 341 341 341 341 340 340 339 337 334 335 336 336 336 336 334 333 333 333
Height
5875 5873 5873 5872 5871 5871 5871 5870 5868 5867 5866 5864 5863 5862 5861 5861 5861 5862 5860 5858 5858 5857 5856 5856 5857 5857 5858 5858 5859 5859 5859 5859 5860 5862 5863 5863 5864 5865 5865 5866 5867 5869 5871 5871 5872 5873 5874 5876 5877
5877 5877 5875 5873 5874 5874 5873 5871 5870 5869 5868 5867 5865 5864 5863 5862 5862 5861 5860 5860 5860 5859 5858 5858 5858 5858 5859 5860 5860 5860 5861 5862 5863 5864 5864 5865 5866 5866 5867 5868 5869 5871 5872 5872 5872 5872 5874 5876 5878
5880 5879 5876 5876 5877 5877 5875 5874 5873 5871 5870 5869 5868 5867 5865 5864 5863 5862 5862 5861 5861 5860 5860 5859 5859 5859 5860 5861 5862 5863 5863 5864 5864 5865 5866 5867 5867 5867 5868 5869 5870 5872 5872 5872 5872 5872 5874 5876 5878
5881 5878 5879 5881 5881 5879 5877 5876 5874 5873 5872 5871 5870 5869 5867 5866 5864 5864 5863 5863 5863 5862 5861 5861 5862 5861 5862 5863 5863 5864 5865 5865 5866 5866 5867 5868 5868 5869 5870 5871 5872 5873 5873 5874 5873 5873 5874 5877 5879
5882 5882 5884 5884 5883 5881 5880 5878 5876 5875 5874 5873 5872 5871 5869 5868 5867 5866 5865 5865 5865 5864 5864 5864 5864 5864 5864 5865 5865 5866 5866 5867 5867 5867 5868 5868 5869 5870 5871 5872 5873 5874 5875 5875 5876 5876 5877 5879 5880
5884 5886 5888 5887 5886 5884 5882 5880 5879 5878 5876 5875 5874 5873 5872 5871 5870 5869 5868 5867 5867 5866 5866 5867 5867 5867 5867 5867 5867 5867 5868 5868 5868 5868 5869 5869 5870 5872 5873 5874 5875 5876 5877 5877 5878 5878 5879 5880 5882
5890 5892 5892 5890 5889 5887 5885 5883 5881 5880 5879 5878 5877 5876 5874 5873 5872 5871 5870 5870 5869 5869 5869 5869 5869 5869 5869 5870 5869 5870 5870 5869 5869 5869 5869 5870 5871 5873 5874 5875 5876 5877 5878 5879 5879 5880 5881 5882 5883
5894 5895 5895 5893 5891 5889 5887 5885 5883 5882 5881 5880 5879 5878 5877 5876 5874 5874 5873 5872 5872 5872 5872 5872 5872 5872 5872 5872 5872 5872 5872 5871 5870 5870 5870 5871 5872 5874 5875 5876 5877 5878 5879 5880 5881 5881 5882 5883 5883
5899 5899 5897 5896 5894 5892 5890 5888 5887 5885 5884 5883 5882 5881 5879 5878 5877 5876 5876 5875 5874 5874 5874 5874 5874 5874 5874 5874 5874 5874 5874 5874 5873 5872 5872 5873 5874 5875 5877 5878 5879 5880 5881 5881 5882 5882 5883 5884 5884
5902 5901 5899 5899 5897 5894 5892 5891 5890 5888 5887 5885 5885 5883 5882 5881 5880 5879 5878 5878 5877 5877 5877 5877 5877 5877 5877 5877 5876 5876 5876 5876 5875 5875 5874 5874 5875 5877 5878 5879 5880 5881 5882 5883 5883 5883 5884 5884 5885
5905 5904 5902 5901 5899 5897 5895 5894 5892 5891 5890 5889 5887 5886 5885 5884 5882 5882 5881 5880 5880 5879 5879 5879 5879 5879 5879 5879 5879 5879 5879 5878 5878 5878 5877 5877 5877 5879 5880 5881 5882 5883 5883 5884 5884 5884 5885 5885 5885
5907 5905 5904 5903 5901 5900 5898 5897 5895 5894 5893 5891 5890 5889 5887 5886 5885 5884 5884 5883 5882 5882 5882 5882 5882 5882 5881 5881 5881 5881 5881 5880 5880 5880 5880 5880 5880 5881 5882 5883 5883 5884 5885 5885 5885 5885 5885 5886 5886
5908 5907 5906 5905 5904 5903 5901 5899 5898 5897 5895 5894 5892 5891 5890 5888 5888 5887 5886 5885 5885 5884 5884 5884 5884 5884 5884 5884 5883 5883 5883 5883 5882 5882 5883 5883 5883 5884 5884 5884 5885 5885 5886 5886 5886 5886 5886 5886 5886
5909 5909 5908 5907 5906 5905 5903 5902 5900 5899 5898 5896 5895 5893 5892 5891 5890 5890 5889 5888 5887 5887 5886 5887 5887 5886 5886 5886 5886 5885 5885 5885 5885 5884 5885 5885 5886 5886 5886 5886 5886 5886 5886 5886 5887 5887 5887 5886 5886
5910 5910 5910 5909 5908 5907 5905 5904 5903 5901 5900 5899 5897 5896 5895 5894 5893 5892 5891 5890 5890 5889 5888 5889 5889 5888 5888 5888 5888 5887 5887 5887 5887 5886 5886 5887 5887 5887 5887 5887 5887 5887 5887 5887 5887 5887 5887 5887 5886
5909 5909 5911 5911 5910 5909 5909 5907 5906 5904 5903 5901 5900 5898 5897 5896 5896 5895 5894 5893 5892 5891 5890 5890 5890 5890 5890 5889 5889 5889 5889 5889 5888 5888 5888 5888 5888 5888 5888 5888 5888 5888 5888 5887 5887 5887 5887 5887 5887
5910 5910 5911 5913 5913 5911 5910 5908 5907 5906 5905 5904 5902 5901 5900 5899 5898 5897 5896 5895 5894 5893 5893 5893 5892 5892 5891 5891 5891 5891 5890 5890 5890 5889 5889 5889 5889 5889 5889 5889 5889 5888 5888 5888 5888 5887 5887 5887 5887
5912 5912 5914 5914 5914 5913 5911 5910 5909 5908 5907 5905 5904 5903 5902 5901 5900 5899 5898 5897 5896 5896 5895 5895 5894 5893 5893 5893 5892 5892 5892 5891 5891 5891 5891 5890 5890 5890 5890 5890 5889 5889 5889 5888 5888 5888 5888 5887 5887
5912 5914 5915 5916 5915 5914 5913 5912 5911 5909 5909 5907 5906 5905 5904 5903 5902 5901 5900 5899 5899 5898 5897 5897 5896 5895 5895 5894 5894 5893 5893 5893 5892 5892 5892 5892 5891 5891 5891 5891 5890 5890 5889 5889 5888 5888 5887 5887 5887
5912 5914 5916 5916 5915 5914 5913 5912 5912 5911 5910 5909 5908 5907 5905 5904 5903 5903 5902 5901 5900 5900 5899 5898 5897 5897 5896 5896 5895 5895 5894 5894 5894 5893 5893 5893 5893 5892 5892 5891 5891 5890 5890 5889 5888 5888 5887 5887 5886
5912 5914 5915 5916 5915 5914 5913 5913 5912 5912 5911 5911 5909 5908 5907 5906 5905 5904 5904 5903 5902 5901 5901 5900 5899 5899 5898 5897 5897 5896 5896 5895 5895 5895 5894 5894 5894 5893 5893 5893 5892 5891 5890 5889 5889 5888 5887 5886 5886
5911 5913 5913 5914 5915 5914 5914 5913 5912 5912 5912 5911 5910 5909 5908 5907 5906 5906 5905 5904 5903 5903 5902 5901 5901 5900 5899 5899 5898 5898 5897 5897 5896 5896 5895 5895 5895 5894 5894 5893 5893 5892 5891 5890 5889 5888 5887 5886 5885
5909 5910 5911 5913 5914 5915 5913 5913 5913 5912 5912 5911 5911 5910 5909 5908 5907 5906 5906 5905 5905 5904 5903 5902 5902 5901 5900 5900 5899 5899 5898 5898 5898 5897 5896 5896 5895 5895 5895 5894 5893 5892 5891 5890 5889 5888 5887 5886 5885
5906 5908 5909 5910 5912 5913 5914 5913 5911 5912 5912 5911 5911 5910 5910 5909 5908 5907 5906 5906 5905 5905 5904 5903 5903 5902 5901 5901 5900 5900 5900 5899 5898 5898 5897 5897 5896 5896 5895 5894 5893 5892 5891 5890 5889 5888 5886 5885 5884
5903 5906 5908 5909 5909 5910 5913 5913 5912 5912 5912 5911 5911 5910 5910 5909 5908 5908 5907 5907 5906 5905 5905 5904 5903 5903 5902 5902 5901 5901 5900 5900 5899 5899 5898 5897 5897 5896 5895 5894 5893 5892 5891 5890 5889 5888 5886 5885 5883
5900 5904 5905 5907 5908 5909 5910 5912 5912 5911 5911 5911 5911 5909 5909 5909 5908 5908 5908 5907 5906 5906 5905 5905 5904 5904 5903 5903 5902 5901 5901 5900 5900 5899 5898 5898 5897 5896 5895 5894 5893 5892 5890 5889 5888 5887 5886 5884 5882
5898 5900 5903 5906 5907 5908 5909 5910 5910 5910 5910 5909 5910 5909 5909 5909 5908 5908 5907 5907 5907 5906 5905 5905 5904 5904 5903 5903 5902 5902 5901 5901 5900 5899 5898 5898 5897 5896 5895 5893 5892 5891 5890 5888 5887 5886 5884 5883 5881
5894 5897 5900 5902 5904 5906 5907 5907 5907 5908 5908 5908 5909 5909 5908 5908 5908 5908 5907 5907 5906 5906 5905 5905 5904 5904 5903 5903 5902 5902 5901 5901 5900 5899 5898 5897 5896 5895 5894 5893 5891 5890 5889 5888 5886 5885 5883 5882 5880
5890 5893 5896 5899 5901 5903 5904 5906 5904 5905 5905 5906 5907 5907 5907 5907 5907 5907 5907 5906 5906 5905 5905 5905 5904 5904 5903 5903 5902 5902 5901 5900 5900 5899 5898 5897 5895 5894 5893 5892 5891 5889 5888 5887 5885 5884 5882 5880 5878
5886 5888 5892 5895 5896 5898 5900 5903 5900 5902 5903 5904 5905 5905 5905 5906 5906 5906 5905 5905 5905 5905 5905 5904 5904 5904 5903 5903 5902 5901 5900 5900 5899 5898 5897 5896 5894 5893 5892 5890 5889 5888 5887 5885 5884 5882 5880 5878 5876